Location: Unspecified
(0.0000°N, 0.0000°E)
Time: 22:57:46
(UTC+00:00)

Vanguard 2 - Visible Passes

Search period start: 23 January 2017 00:00
Search period end: 02 February 2017 00:00
Orbit: 553 x 2940 km, 32.9° (Epoch: 22 January)

Date Brightness Start Highest point End Pass type
(mag) Time Alt. Az. Time Alt. Az. Time Alt. Az.
23 Jan 9.3 05:07:24 14° NW 05:13:36 54° NE 05:25:12 10° ESE visible
23 Jan 9.2 18:28:10 10° WSW 18:39:33 60° NW 18:46:14 10° NE visible
24 Jan 10.3 03:23:26 14° NE 03:23:26 14° NE 03:27:04 10° ENE visible
24 Jan 9.0 05:24:53 11° NW 05:31:46 78° NE 05:44:09 10° ESE visible
24 Jan 9.7 18:47:25 10° WSW 18:57:36 40° NW 19:03:57 10° NNE visible
25 Jan 9.7 03:40:55 23° NE 03:41:15 24° NE 03:47:46 10° E visible
25 Jan 9.1 05:42:51 10° WNW 05:50:06 75° SW 06:02:44 10° SE visible
25 Jan 10.1 19:07:14 10° W 19:15:39 27° NW 19:21:22 10° NNE visible
26 Jan 9.0 03:58:24 36° NNE 03:59:16 38° NE 04:07:29 10° ESE visible
26 Jan 10.3 19:27:51 10° WNW 19:33:47 17° NW 19:38:17 10° N visible
27 Jan 8.3 04:15:53 50° N 04:17:18 60° NE 04:26:37 10° ESE visible
27 Jan 10.5 19:50:43 10° NW 19:52:05 10° NW 19:53:23 10° NNW visible
28 Jan 8.2 04:33:23 47° WNW 04:35:29 88° SW 04:45:20 10° SE visible
29 Jan 10.5 02:49:24 13° E 02:49:24 13° E 02:50:28 10° E visible
29 Jan 8.6 04:50:52 32° W 04:53:55 58° SSW 05:03:41 10° SE visible
30 Jan 10.0 03:06:53 22° E 03:06:53 22° E 03:09:53 10° ESE visible
30 Jan 9.3 05:08:20 19° W 05:12:33 38° SSW 05:21:46 10° SE visible
30 Jan 10.6 18:29:29 10° W 18:37:20 19° NW 18:43:13 10° N visible
31 Jan 9.4 03:24:20 34° ESE 03:24:20 34° ESE 03:28:44 10° ESE visible
31 Jan 9.8 05:25:52 10° WSW 05:31:24 27° SSW 05:39:36 10° SSE visible
31 Jan 10.8 18:51:35 10° WNW 18:55:50 13° NW 18:59:27 10° NNW visible
01 Feb 8.9 03:41:47 42° SSE 03:41:47 42° SSE 03:47:10 10° SE visible
01 Feb 10.1 05:45:30 10° WSW 05:50:27 19° SSW 05:57:09 10° SSE visible
